Flag Weather past 2 weeks in Manama, Bahrain

Now
77 °F

Passing clouds.


Feels Like: 79 °F
Forecast: 67 / 74 °F
Wind: 13 mph from North

Location: Bahrain International Airport

Current Time: Nov 28, 2014 at 10:34:38 AM

Latest Report: Nov 28, 2014 at 10:00 AM


Visibility: N/A

Pressure: 30.04 "Hg

Humidity: 51%

Dew point: 57 °F

Location of ManamaLocation

Historic Weather in Manama — Graph

°F

Manama temperature yesterday

Maximum temperature yesterday: 77 °F (at 11:00 AM)
Minimum temperature yesterday: 72 °F (at 12:00 AM)
Average temperature yesterday: 74 °F

Past Weeks' High & Low Weather Summary

 TemperatureHumidityPressure
High86 °F (Nov 22, 12:00 PM)78% (Nov 16, 2:00 AM)30.15 "Hg (Nov 16, 2:00 AM)
Low68 °F (Nov 14, 5:00 AM)28% (Nov 14, 11:00 AM)29.77 "Hg (Nov 25, 3:00 PM)
Average76 °F58%30.01 "Hg
* Reported Nov 13 9:00 AM — Nov 28 9:00 AM, Manama, Weather by CustomWeather, © 2014

Note: Actual official high and low records may vary slightly from our data, if they occured in-between our weather recording intervals... More about our weather records

Advertising

Manama weather history for previous 24 hours

 ConditionsComfort  
Time TempWeatherWind HumidityBarometerVisibility
9:00 AM
Nov 28
75 °FPassing clouds.13 mph54%30.04 "HgN/A
8:00 AM73 °FPassing clouds.8 mph61%30.04 "HgN/A
7:00 AM72 °FSunny.6 mph61%30.04 "Hg10 mi
6:00 AM72 °FClear.7 mph61%30.01 "Hg10 mi
5:00 AM72 °FClear.9 mph61%30.01 "Hg10 mi
4:00 AM72 °FClear.9 mph57%30.01 "Hg10 mi
3:00 AM72 °FClear.10 mph53%29.98 "Hg10 mi
2:00 AM72 °FClear.10 mph53%29.98 "Hg10 mi
1:00 AM72 °FClear.8 mph53%29.98 "Hg10 mi
12:00 AM73 °FClear.9 mph47%30.01 "Hg10 mi
11:00 PM
Nov 27
73 °FClear.8 mph47%30.01 "Hg10 mi
10:00 PM73 °FClear.10 mph50%30.01 "Hg10 mi
9:00 PM73 °FClear.10 mph50%30.01 "Hg10 mi
8:00 PM73 °FClear.9 mph47%30.01 "Hg10 mi
7:00 PM73 °FClear.8 mph44%30.01 "Hg10 mi
6:00 PM73 °FClear.10 mph44%30.01 "Hg10 mi
5:00 PM73 °FClear.10 mph44%30.01 "Hg10 mi
4:00 PM75 °FSunny.13 mph41%29.98 "Hg10 mi
3:00 PM75 °FPassing clouds.13 mph39%29.98 "HgN/A
2:00 PM77 °FSunny.13 mph34%29.98 "Hg10 mi
1:00 PM77 °FPassing clouds.13 mph34%30.01 "HgN/A
12:00 PM77 °FSunny.12 mph39%30.01 "Hg10 mi
11:00 AM77 °FPassing clouds.12 mph36%30.04 "HgN/A
10:00 AM75 °FPassing clouds.10 mph44%30.07 "HgN/A
Weather by CustomWeather, © 2014

See weather overviewHow to use our weather pages